CZ-6A DEB, 61436

Orbit data source: Space-Track

CZ-6A DEB, 61436 is space debris in LEO originally from a launch on Tue, 06 Aug 2024 UTC launched from the Taiyaun Space Center, China (TSC). Debris objects in space refer to the collection of defunct objects orbiting the Earth. Examples of debris include non-operational satellites, rocket bodies, and fragments generated from explosions, collisions, or faulty payload assembly.

Loading next visibility...
Identifier
61436, 2024-140ZD
Orbit
LEO
Country
Flag of CNCN / PRC
Related business
Manufacturer
SAST
Mission
Spacecraft
Bus & Motor
Unknown
Mass
Unknown
Launch date (UTC)
2024-08-06 (2 years ago)
Launch vehicle
Unknown
Launch site
Taiyaun Space Center, China (TSC)
Object type
Payload
Rocket body
Debris
Shape & HBR
Unknown shape, 0.1 m
Radar Cross Section
Medium (>0.1 m² and <1 m²)

Expand to show TLE details & history
Last TLE update: 15 hours ago

TLE from 15 hours ago
0 CZ-6A DEB
1 61436U 24140ZD  26171.24240078  .00000831  00000-0  38543-3 0  9993
2 61436  88.9409 269.7336 0057532 169.6686 190.5701 14.18957085 94587
Epoch: 2026-06-20T05:49Z
TLE epoch observation values (Epoch: 2026-06-20T05:49:03.427Z)
Latitude
-0.00002°
Longitude
-85.99051°
Altitude
872.71 km
Speed
7.395 km/s
True Right ascension
17h 58m 56s
True Declination
0° 00' 00"
Sunlit
Object was in full shadow at epoch
Visualization orbit readout
Latitude
Unknown
Longitude
Unknown
Altitude
Unknown
Speed
Unknown
Apparent Right ascension
Unknown
Apparent Declination
Unknown
Sunlit
N/A
Visualization observer readout
Local Sidereal Time
07:21:17
Azimuth
Unknown
Elevation
Unknown
Doppler factor
Unknown
Orbital elements
Apogee altitude
867.281 km
Perigee altitude
784.389 km
Semi-major axis
7,203.972 km
Eccentricity
0.00575
Inclination
88.9409°
RAAN
269.7336°
Arg. of periapsis
169.6686°
True anomaly
190.45001°
Mean anomaly
190.5701°
Eccentric anomaly
190.50997°
Mean motion
3.54965 °/min
Orbital period
101.42 mins
BSTAR
0.00038543
Loading maneuver chart data...
Computing Atmospheric mass density...
Loading historical data...
Loading historical data...
Loading historical data...
Loading historical data...
Loading historical data...
Loading historical data...
Loading historical data...

Documentation

Showing up to 5 results
|